• In Kazakhstan
  • List of Countries
  • For 7 days
  • Water Temperature
  • Satellite Maps
  • Weather Map
  • News
  • Weather Widgets
  • user-avatar
    Login

    Hourly Weather Rawson

    Today, 20 January, Sunday

    Time Temperature Precipitation Wind Pressure Humidity
    00:00 +34°C° 0 mm 10 mps 751 mmHg 16%
    01:00 +33°C° 0 mm 9 mps 751 mmHg 17%
    02:00 +32°C° 0 mm 7 mps 752 mmHg 16%
    03:00 +30°C° 0 mm 6 mps 752 mmHg 18%
    04:00 +29°C° 0 mm 6 mps 752 mmHg 20%
    05:00 +28°C° 0 mm 5 mps 752 mmHg 22%
    06:00 +29°C° 0 mm 5 mps 752 mmHg 20%
    07:00 +30°C° 0 mm 5 mps 752 mmHg 19%
    08:00 +30°C° 0 mm 5 mps 752 mmHg 17%
    09:00 +32°C° 0 mm 4 mps 752 mmHg 17%
    10:00 +33°C° 0 mm 4 mps 752 mmHg 16%
    11:00 +33°C° 0 mm 3 mps 751 mmHg 15%
    12:00 +34°C° 0 mm 4 mps 751 mmHg 16%
    13:00 +35°C° 0 mm 6 mps 750 mmHg 16%
    14:00 +36°C° 0 mm 7 mps 749 mmHg 16%
    15:00 +36°C° 0 mm 7 mps 748 mmHg 19%
    16:00 +36°C° 0 mm 7 mps 748 mmHg 21%
    17:00 +37°C° 0 mm 8 mps 747 mmHg 23%
    18:00 +33°C° 0 mm 8 mps 747 mmHg 30%
    19:00 +30°C° 0 mm 7 mps 747 mmHg 37%
    20:00 +27°C° 0 mm 7 mps 747 mmHg 44%
    21:00 +27°C° 0 mm 8 mps 748 mmHg 38%
    22:00 +27°C° 0 mm 10 mps 749 mmHg 32%
    23:00 +27°C° 0 mm 12 mps 750 mmHg 26%

    Tomorrow, 21 January, Monday

    Time Temperature Precipitation Wind Pressure Humidity
    00:00 +27°C° 0 mm 12 mps 750 mmHg 26%
    01:00 +26°C° 0 mm 11 mps 751 mmHg 26%
    02:00 +24°C° 0 mm 11 mps 752 mmHg 26%
    03:00 +23°C° 0 mm 11 mps 752 mmHg 28%
    04:00 +21°C° 0 mm 10 mps 753 mmHg 30%
    05:00 +19°C° 0 mm 10 mps 754 mmHg 31%
    06:00 +19°C° 0 mm 9 mps 754 mmHg 30%
    07:00 +19°C° 0 mm 9 mps 755 mmHg 30%
    08:00 +21°C° 0 mm 8 mps 755 mmHg 29%
    09:00 +22°C° 0 mm 7 mps 755 mmHg 26%
    10:00 +23°C° 0 mm 7 mps 755 mmHg 22%
    11:00 +24°C° 0 mm 6 mps 755 mmHg 19%
    12:00 +27°C° 0 mm 6 mps 754 mmHg 16%
    13:00 +28°C° 0 mm 6 mps 754 mmHg 14%
    14:00 +29°C° 0 mm 6 mps 753 mmHg 11%
    15:00 +30°C° 0 mm 5 mps 752 mmHg 12%
    16:00 +32°C° 0 mm 5 mps 752 mmHg 12%
    17:00 +33°C° 0 mm 5 mps 751 mmHg 13%
    18:00 +30°C° 0 mm 5 mps 751 mmHg 16%
    19:00 +29°C° 0 mm 6 mps 751 mmHg 18%
    20:00 +28°C° 0 mm 7 mps 750 mmHg 21%
    21:00 +27°C° 0 mm 6 mps 751 mmHg 22%
    22:00 +26°C° 0 mm 5 mps 751 mmHg 23%
    23:00 +25°C° 0 mm 4 mps 752 mmHg 24%

    Day after tomorrow, 22 January, Tuesday

    Time Temperature Precipitation Wind Pressure Humidity
    00:00 +25°C° 0 mm 4 mps 752 mmHg 26%
    01:00 +23°C° 0 mm 4 mps 752 mmHg 28%
    02:00 +22°C° 0 mm 4 mps 752 mmHg 30%
    03:00 +22°C° 0 mm 4 mps 753 mmHg 31%
    04:00 +21°C° 0 mm 4 mps 753 mmHg 32%
    05:00 +21°C° 0 mm 4 mps 753 mmHg 33%
    06:00 +21°C° 0 mm 6 mps 754 mmHg 33%
    07:00 +21°C° 0 mm 8 mps 754 mmHg 32%
    08:00 +22°C° 0 mm 11 mps 755 mmHg 32%
    09:00 +22°C° 0 mm 11 mps 755 mmHg 27%
    10:00 +22°C° 0 mm 11 mps 756 mmHg 23%
    11:00 +22°C° 0 mm 11 mps 756 mmHg 19%
    12:00 +23°C° 0 mm 10 mps 756 mmHg 18%
    13:00 +24°C° 0 mm 9 mps 756 mmHg 17%
    14:00 +26°C° 0 mm 9 mps 756 mmHg 16%
    15:00 +26°C° 0 mm 8 mps 756 mmHg 16%
    16:00 +26°C° 0 mm 7 mps 756 mmHg 16%
    17:00 +26°C° 0 mm 7 mps 756 mmHg 17%
    18:00 +23°C° 0 mm 7 mps 757 mmHg 25%
    19:00 +21°C° 0 mm 7 mps 757 mmHg 33%
    20:00 +19°C° 0 mm 6 mps 757 mmHg 41%
    21:00 +19°C° 0 mm 6 mps 758 mmHg 42%
    22:00 +17°C° 0 mm 6 mps 759 mmHg 44%
    23:00 +17°C° 0 mm 6 mps 759 mmHg 45%

    23 January, Wednesday

    Time Temperature Precipitation Wind Pressure Humidity
    00:00 +17°C° 0 mm 7 mps 760 mmHg 47%
    01:00 +17°C° 0 mm 7 mps 760 mmHg 49%
    02:00 +17°C° 0 mm 7 mps 760 mmHg 51%
    03:00 +17°C° 0 mm 7 mps 760 mmHg 46%
    04:00 +17°C° 0 mm 6 mps 760 mmHg 41%
    05:00 +17°C° 0 mm 6 mps 761 mmHg 36%
    06:00 +19°C° 0 mm 5 mps 761 mmHg 32%
    07:00 +20°C° 0 mm 5 mps 761 mmHg 29%
    08:00 +20°C° 0 mm 4 mps 761 mmHg 25%
    09:00 +22°C° 0 mm 4 mps 761 mmHg 22%
    10:00 +23°C° 0 mm 4 mps 761 mmHg 20%
    11:00 +26°C° 0 mm 4 mps 760 mmHg 18%
    12:00 +28°C° 0 mm 5 mps 760 mmHg 17%
    13:00 +29°C° 0 mm 6 mps 759 mmHg 17%
    14:00 +32°C° 0 mm 7 mps 758 mmHg 16%
    15:00 +32°C° 0 mm 8 mps 757 mmHg 17%
    16:00 +33°C° 0 mm 9 mps 756 mmHg 18%
    17:00 +33°C° 0 mm 11 mps 755 mmHg 19%
    18:00 +31°C° 0 mm 11 mps 755 mmHg 24%
    19:00 +28°C° 0 mm 12 mps 754 mmHg 29%
    20:00 +26°C° 0 mm 12 mps 754 mmHg 33%
    21:00 +26°C° 0 mm 13 mps 754 mmHg 36%
    22:00 +24°C° 0 mm 14 mps 754 mmHg 39%
    23:00 +24°C° 0 mm 16 mps 753 mmHg 42%

    24 January, Thursday

    Time Temperature Precipitation Wind Pressure Humidity
    00:00 +23°C° 0 mm 15 mps 753 mmHg 43%
    01:00 +23°C° 0 mm 15 mps 752 mmHg 45%
    02:00 +23°C° 0 mm 15 mps 752 mmHg 46%
    03:00 +23°C° 0 mm 13 mps 751 mmHg 45%
    04:00 +23°C° 0 mm 12 mps 751 mmHg 45%
    05:00 +23°C° 0 mm 11 mps 751 mmHg 44%
    06:00 +27°C° 0 mm 10 mps 751 mmHg 37%
    07:00 +29°C° 0 mm 10 mps 751 mmHg 30%
    08:00 +32°C° 0 mm 10 mps 750 mmHg 23%
    09:00 +34°C° 0 mm 10 mps 750 mmHg 18%
    10:00 +37°C° 0 mm 10 mps 750 mmHg 13%
    11:00 +39°C° 0 mm 9 mps 749 mmHg 9%
    12:00 +40°C° 0 mm 9 mps 748 mmHg 7%
    13:00 +41°C° 0 mm 8 mps 748 mmHg 5%
    14:00 +43°C° 0 mm 7 mps 747 mmHg 4%
    15:00 +43°C° 0 mm 7 mps 746 mmHg 5%
    16:00 +41°C° 0 mm 6 mps 745 mmHg 7%
    17:00 +40°C° 0 mm 6 mps 745 mmHg 9%
    18:00 +37°C° 0 mm 5 mps 745 mmHg 11%
    19:00 +35°C° 0 mm 5 mps 745 mmHg 14%
    20:00 +33°C° 0 mm 4 mps 745 mmHg 16%
    21:00 +30°C° 0 mm 6 mps 745 mmHg 25%
    22:00 +27°C° 0 mm 8 mps 746 mmHg 33%
    23:00 +24°C° 0 mm 11 mps 747 mmHg 41%

    25 January, Friday

    Time Temperature Precipitation Wind Pressure Humidity
    00:00 +23°C° 0 mm 11 mps 748 mmHg 36%
    01:00 +22°C° 0 mm 12 mps 749 mmHg 30%
    02:00 +21°C° 0 mm 12 mps 750 mmHg 24%
    03:00 +19°C° 0 mm 12 mps 751 mmHg 25%
    04:00 +18°C° 0 mm 12 mps 752 mmHg 26%
    05:00 +18°C° 0 mm 13 mps 753 mmHg 26%
    06:00 +18°C° 0 mm 13 mps 754 mmHg 26%
    07:00 +17°C° 0 mm 13 mps 754 mmHg 26%
    08:00 +17°C° 0 mm 14 mps 755 mmHg 25%
    09:00 +18°C° 0 mm 13 mps 756 mmHg 23%
    10:00 +19°C° 0 mm 13 mps 756 mmHg 22%
    11:00 +19°C° 0 mm 12 mps 756 mmHg 20%
    12:00 +21°C° 0 mm 12 mps 757 mmHg 19%
    13:00 +22°C° 0 mm 12 mps 757 mmHg 18%
    14:00 +23°C° 0 mm 12 mps 757 mmHg 18%
    15:00 +23°C° 0 mm 12 mps 757 mmHg 18%
    16:00 +23°C° 0 mm 12 mps 757 mmHg 17%
    17:00 +24°C° 0 mm 11 mps 757 mmHg 17%
    18:00 +23°C° 0 mm 10 mps 758 mmHg 18%
    19:00 +22°C° 0 mm 9 mps 758 mmHg 20%
    20:00 +22°C° 0 mm 8 mps 759 mmHg 21%
    21:00 +21°C° 0 mm 6 mps 759 mmHg 23%
    22:00 +20°C° 0 mm 5 mps 760 mmHg 25%
    23:00 +20°C° 0 mm 3 mps 760 mmHg 27%
    Show more